TimeMST,TemperatureF,Dew PointF,Humidity,Sea Level PressureIn,VisibilityMPH,Wind Direction,Wind SpeedMPH,Gust SpeedMPH,PrecipitationIn,Events,Conditions,WindDirDegrees,DateUTC
12:55 AM,57.0,41.0,55,29.97,10.0,Calm,Calm,-,N/A,,Clear,0,2013-02-05 07:55:00
1:55 AM,55.9,39.9,55,29.96,10.0,ENE,4.6,-,N/A,,Clear,70,2013-02-05 08:55:00
2:55 AM,55.9,37.9,51,29.95,10.0,Calm,Calm,-,N/A,,Clear,0,2013-02-05 09:55:00
3:55 AM,55.9,37.0,49,29.95,10.0,Calm,Calm,-,N/A,,Clear,0,2013-02-05 10:55:00
4:55 AM,54.0,39.0,57,29.95,10.0,Calm,Calm,-,N/A,,Clear,0,2013-02-05 11:55:00
5:55 AM,53.1,39.9,61,29.96,10.0,Calm,Calm,-,N/A,,Clear,0,2013-02-05 12:55:00
6:55 AM,52.0,39.0,61,29.96,10.0,NE,3.5,-,N/A,,Clear,50,2013-02-05 13:55:00
7:55 AM,54.0,37.9,55,29.97,10.0,NE,5.8,-,N/A,,Clear,40,2013-02-05 14:55:00
8:55 AM,60.1,37.0,42,29.98,10.0,NNE,5.8,-,N/A,,Clear,20,2013-02-05 15:55:00
9:55 AM,63.0,37.9,40,29.99,10.0,NNE,8.1,-,N/A,,Clear,30,2013-02-05 16:55:00
10:55 AM,68.0,39.0,35,30.01,10.0,North,5.8,-,N/A,,Clear,360,2013-02-05 17:55:00
11:55 AM,72.0,37.0,28,30.00,10.0,Calm,Calm,-,N/A,,Partly Cloudy,0,2013-02-05 18:55:00
12:55 PM,75.0,33.1,22,29.97,10.0,Calm,Calm,-,N/A,,Partly Cloudy,0,2013-02-05 19:55:00
1:55 PM,75.9,34.0,22,29.93,10.0,West,3.5,-,N/A,,Partly Cloudy,270,2013-02-05 20:55:00
2:55 PM,77.0,30.9,19,29.90,10.0,Calm,Calm,-,N/A,,Partly Cloudy,0,2013-02-05 21:55:00
3:55 PM,78.1,28.9,17,29.88,10.0,Calm,Calm,-,N/A,,Partly Cloudy,0,2013-02-05 22:55:00
4:55 PM,77.0,28.9,17,29.88,10.0,Variable,4.6,-,N/A,,Scattered Clouds,0,2013-02-05 23:55:00
5:55 PM,75.0,30.9,20,29.87,10.0,SSW,4.6,-,N/A,,Mostly Cloudy,210,2013-02-06 00:55:00
6:58 PM,71.1,35.1,27,29.87,10.0,Calm,Calm,-,N/A,,Mostly Cloudy,0,2013-02-06 01:58:00
7:00 PM,71.1,35.1,27,29.87,10.0,Calm,Calm,-,N/A,,Mostly Cloudy,0,2013-02-06 02:00:00
7:55 PM,66.0,39.0,37,29.88,10.0,Calm,Calm,-,N/A,,Mostly Cloudy,0,2013-02-06 02:55:00
8:55 PM,64.9,39.0,39,29.89,10.0,Calm,Calm,-,N/A,,Mostly Cloudy,0,2013-02-06 03:55:00
9:55 PM,62.1,42.1,48,29.90,10.0,Calm,Calm,-,N/A,,Mostly Cloudy,0,2013-02-06 04:55:00
10:55 PM,60.1,44.1,55,29.90,10.0,South,3.5,-,N/A,,Mostly Cloudy,190,2013-02-06 05:55:00
11:55 PM,61.0,42.1,50,29.90,10.0,ESE,3.5,-,N/A,,Mostly Cloudy,120,2013-02-06 06:55:00